contact:dominique.lefevre@mio.osupytheas.fr, maurice.libes@osupytheas.fr, didier.mallarino@osupytheas.fr
Project:EMSO http://www.emso-fr.org/EMSO-France
Depth: 2436.0 m
Title:EMSO Ligure Ouest : Data MII capteur AQUADOPP
Date,Latitude,Longitude,X_East,Y_North,Z_Up,Amplitude_X,Amplitude_Y,Amplitude_Z,Batterie,SoundSpeed,Heading,Pitch,Roll,Pressure,TIS,Speed,Direction
, degrees North, degrees East, m.s-1, m.s-1,m.s-1, 1, 1, 1, Volt, m.s-1, degree, degree, degree, dbar, degree_C, m.s-1, degree
2019-08-29T00:09:04,42.805,6.029,0.018,0.011,-0.027,102.0,111.0,98.0,13.4,1505.2,327.2,-0.8,1.8,2470.097,13.3,0.021,58.6
2019-08-29T00:12:05,42.805,6.029,0.017,0.024,-0.012,101.0,110.0,98.0,13.4,1505.3,327.9,-0.7,1.8,2470.065,13.31,0.029,35.3
2019-08-29T00:15:06,42.805,6.029,-0.017,0.009,-0.059,102.0,109.0,99.0,13.4,1505.3,326.4,-0.7,1.8,2470.041,13.32,0.019,297.9
2019-08-29T00:18:07,42.805,6.029,0.002,0.012,-0.028,101.0,111.0,99.0,13.3,1505.3,328.0,-0.7,1.9,2470.059,13.32,0.012,9.5
2019-08-29T00:21:08,42.805,6.029,0.024,0.024,-0.033,103.0,111.0,100.0,13.3,1505.3,323.2,-0.7,1.9,2470.067,13.32,0.033,45.0
2019-08-29T00:24:09,42.805,6.029,0.011,0.026,-0.067,102.0,110.0,99.0,13.4,1505.3,325.7,-0.7,1.8,2470.021,13.33,0.028,22.9
2019-08-29T00:27:10,42.805,6.029,-0.013,0.024,-0.02,103.0,110.0,98.0,13.3,1505.3,328.6,-0.7,1.8,2470.042,13.33,0.027,331.6
2019-08-29T00:30:11,42.805,6.029,0.002,0.012,-0.04,101.0,110.0,100.0,13.3,1505.3,325.7,-0.7,1.8,2470.02,13.33,0.012,9.5
2019-08-29T00:33:12,42.805,6.029,-0.009,0.007,-0.015,102.0,110.0,100.0,13.3,1505.3,327.2,-0.7,1.8,2470.026,13.33,0.011,307.9
2019-08-29T00:36:13,42.805,6.029,-0.016,0.032,-0.031,102.0,109.0,99.0,13.4,1505.3,325.9,-0.7,1.8,2470.014,13.33,0.035,333.4
2019-08-29T00:39:14,42.805,6.029,0.022,0.023,-0.024,102.0,110.0,97.0,13.4,1505.3,325.1,-0.7,1.8,2470.027,13.33,0.031,43.7
2019-08-29T00:42:15,42.805,6.029,0.025,0.017,0.011,102.0,109.0,98.0,13.4,1505.3,328.3,-0.6,1.8,2470.026,13.33,0.03,55.8
2019-08-29T00:45:16,42.805,6.029,0.006,-0.007,-0.008,101.0,110.0,98.0,13.4,1505.3,325.5,-0.7,1.9,2470.029,13.33,0.009,139.4
2019-08-29T00:48:17,42.805,6.029,0.024,0.019,0.002,102.0,110.0,100.0,13.4,1505.3,326.0,-0.7,1.8,2470.012,13.33,0.03,51.6
2019-08-29T00:51:18,42.805,6.029,0.009,0.01,-0.006,103.0,109.0,99.0,13.4,1505.3,324.1,-0.7,1.8,2470.004,13.33,0.013,42.0
2019-08-29T00:54:19,42.805,6.029,0.016,0.016,-0.02,102.0,110.0,98.0,13.4,1505.3,324.1,-0.7,1.9,2470.03,13.33,0.022,45.0
2019-08-29T00:57:20,42.805,6.029,0.038,0.013,-0.028,101.0,110.0,99.0,13.4,1505.3,328.4,-0.7,1.8,2470.021,13.33,0.04,71.1
2019-08-29T01:00:21,42.805,6.029,-0.011,0.013,-0.015,102.0,109.0,99.0,13.4,1505.3,325.5,-0.7,1.8,2470.007,13.33,0.017,319.8
2019-08-29T01:03:22,42.805,6.029,0.005,0.004,-0.034,102.0,111.0,99.0,13.4,1505.3,324.5,-0.7,1.8,2470.01,13.33,0.006,51.3
2019-08-29T01:06:23,42.805,6.029,0.003,0.021,-0.036,102.0,109.0,99.0,13.4,1505.3,326.0,-0.7,1.8,2469.987,13.33,0.021,8.1
2019-08-29T01:09:24,42.805,6.029,0.018,0.012,-0.027,103.0,110.0,99.0,13.3,1505.3,324.3,-0.7,1.8,2470.011,13.33,0.021,56.3
2019-08-29T01:12:25,42.805,6.029,0.002,0.027,-0.029,102.0,110.0,101.0,13.3,1505.3,324.0,-0.7,1.8,2470.009,13.33,0.027,4.2
2019-08-29T01:15:26,42.805,6.029,-0.026,0.01,-0.045,102.0,110.0,99.0,13.3,1505.3,328.2,-0.7,1.8,2470.013,13.33,0.027,291.0
2019-08-29T01:18:27,42.805,6.029,0.002,0.011,-0.006,102.0,110.0,100.0,13.3,1505.3,328.2,-0.7,1.8,2470.03,13.33,0.011,10.3
2019-08-29T01:21:28,42.805,6.029,-0.01,0.03,-0.018,103.0,109.0,99.0,13.3,1505.3,327.9,-0.7,1.8,2469.979,13.33,0.031,341.6
2019-08-29T01:24:29,42.805,6.029,0.003,-0.009,-0.007,103.0,109.0,98.0,13.4,1505.3,324.2,-0.7,1.8,2470.007,13.33,0.009,161.6
2019-08-29T01:27:30,42.805,6.029,0.015,0.015,-0.024,102.0,110.0,100.0,13.3,1505.3,325.0,-0.7,1.8,2470.046,13.33,0.021,45.0
2019-08-29T01:30:31,42.805,6.029,0.001,0.003,-0.037,102.0,109.0,98.0,13.3,1505.3,326.3,-0.7,1.8,2469.993,13.33,0.003,18.4
2019-08-29T01:33:32,42.805,6.029,0.0,0.0,-0.026,103.0,109.0,99.0,13.4,1505.3,323.5,-0.7,1.8,2470.047,13.33,0.0,0.0
2019-08-29T01:36:33,42.805,6.029,0.01,0.01,-0.011,102.0,111.0,99.0,13.3,1505.3,324.2,-0.7,1.8,2470.003,13.33,0.014,45.0
2019-08-29T01:39:34,42.805,6.029,-0.023,0.024,-0.042,102.0,110.0,98.0,13.4,1505.3,327.7,-0.7,1.8,2470.038,13.33,0.033,316.2
2019-08-29T01:42:35,42.805,6.029,-0.022,0.023,-0.031,102.0,111.0,99.0,13.4,1505.3,325.7,-0.7,1.8,2470.02,13.33,0.031,316.3
2019-08-29T01:45:36,42.805,6.029,0.012,0.012,-0.02,103.0,108.0,99.0,13.4,1505.3,327.0,-0.7,1.8,2470.044,13.33,0.016,45.0
2019-08-29T01:48:37,42.805,6.029,-0.006,0.016,-0.026,102.0,109.0,99.0,13.3,1505.3,327.6,-0.7,1.8,2470.002,13.33,0.017,339.4
2019-08-29T01:51:38,42.805,6.029,0.007,0.005,-0.018,102.0,110.0,98.0,13.4,1505.3,326.3,-0.7,1.8,2469.997,13.33,0.008,54.5
2019-08-29T01:54:39,42.805,6.029,0.004,0.007,-0.015,102.0,108.0,98.0,13.4,1505.3,327.3,-0.7,1.8,2469.998,13.33,0.008,29.7
2019-08-29T01:57:40,42.805,6.029,-0.002,0.021,-0.032,101.0,109.0,98.0,13.3,1505.3,327.9,-0.7,1.8,2470.078,13.33,0.021,354.6
2019-08-29T02:00:41,42.805,6.029,0.032,0.016,0.004,102.0,109.0,98.0,13.4,1505.3,326.9,-0.8,1.8,2470.025,13.33,0.035,63.4
2019-08-29T02:03:42,42.805,6.029,0.0,0.016,0.006,103.0,107.0,98.0,13.4,1505.3,327.8,-0.7,1.9,2469.997,13.33,0.016,0.0
2019-08-29T02:06:43,42.805,6.029,0.018,0.007,-0.064,101.0,109.0,99.0,13.4,1505.3,327.7,-0.7,1.8,2470.024,13.33,0.019,68.8
2019-08-29T02:09:44,42.805,6.029,0.005,0.01,-0.051,102.0,110.0,99.0,13.4,1505.3,327.4,-0.7,1.8,2470.004,13.33,0.011,26.6
2019-08-29T02:12:45,42.805,6.029,0.013,0.015,-0.056,103.0,109.0,99.0,13.4,1505.3,326.9,-0.7,1.8,2470.042,13.33,0.019,40.9
2019-08-29T02:15:46,42.805,6.029,0.019,-0.002,-0.026,101.0,108.0,100.0,13.3,1505.3,326.8,-0.7,1.8,2470.034,13.33,0.019,96.0
2019-08-29T02:18:47,42.805,6.029,-0.017,0.0,-0.026,102.0,111.0,99.0,13.4,1505.3,327.5,-0.7,1.8,2469.993,13.33,0.017,270.0
2019-08-29T02:21:48,42.805,6.029,0.015,0.027,-0.016,104.0,110.0,99.0,13.4,1505.3,326.7,-0.7,1.9,2470.051,13.33,0.03,29.1
2019-08-29T02:24:49,42.805,6.029,0.014,0.014,-0.022,103.0,110.0,100.0,13.4,1505.3,326.5,-0.7,1.8,2470.044,13.33,0.019,45.0
2019-08-29T02:27:50,42.805,6.029,-0.018,0.021,-0.035,102.0,110.0,100.0,13.4,1505.3,324.5,-0.8,1.8,2470.061,13.33,0.027,319.4
2019-08-29T02:30:51,42.805,6.029,0.007,0.016,-0.017,101.0,109.0,98.0,13.4,1505.3,324.2,-0.7,1.8,2470.108,13.33,0.017,23.6
2019-08-29T02:33:52,42.805,6.029,0.013,0.012,0.006,103.0,108.0,99.0,13.4,1505.3,326.9,-0.7,1.8,2470.003,13.33,0.017,47.3
2019-08-29T02:36:53,42.805,6.029,-0.003,0.013,-0.049,102.0,110.0,100.0,13.4,1505.3,325.2,-0.7,1.9,2470.026,13.33,0.013,347.0
2019-08-29T02:39:54,42.805,6.029,-0.011,0.008,-0.042,102.0,110.0,99.0,13.4,1505.3,324.1,-0.7,1.8,2470.077,13.33,0.013,306.0
2019-08-29T02:42:55,42.805,6.029,-0.009,0.004,-0.048,103.0,110.0,100.0,13.3,1505.3,327.4,-0.7,1.9,2470.036,13.33,0.009,294.0
2019-08-29T02:45:56,42.805,6.029,0.029,0.013,-0.046,103.0,109.0,100.0,13.3,1505.3,326.8,-0.7,1.8,2470.057,13.33,0.031,65.9
2019-08-29T02:48:57,42.805,6.029,0.007,0.022,-0.053,103.0,110.0,98.0,13.4,1505.3,327.1,-0.7,1.8,2470.05,13.33,0.023,17.6
2019-08-29T02:51:58,42.805,6.029,-0.011,0.032,-0.036,103.0,108.0,100.0,13.3,1505.3,324.5,-0.7,1.8,2470.038,13.33,0.033,341.0
2019-08-29T02:54:59,42.805,6.029,-0.016,0.024,-0.034,103.0,110.0,99.0,13.4,1505.3,327.0,-0.7,1.8,2470.042,13.33,0.028,326.3
2019-08-29T02:58:00,42.805,6.029,0.004,0.008,-0.025,103.0,109.0,99.0,13.3,1505.3,327.3,-0.7,1.8,2470.093,13.33,0.008,26.6
2019-08-29T03:01:01,42.805,6.029,0.005,0.011,-0.058,103.0,111.0,100.0,13.3,1505.3,324.4,-0.7,1.9,2470.02,13.33,0.012,24.4
2019-08-29T03:04:02,42.805,6.029,0.013,0.004,-0.001,103.0,110.0,99.0,13.4,1505.3,326.9,-0.7,1.8,2470.076,13.33,0.013,72.9
2019-08-29T03:07:03,42.805,6.029,0.0,0.016,-0.029,103.0,110.0,99.0,13.3,1505.3,324.4,-0.7,1.8,2470.077,13.33,0.016,0.0
2019-08-29T03:10:04,42.805,6.029,-0.001,0.014,-0.052,103.0,110.0,101.0,13.4,1505.3,325.2,-0.7,1.8,2470.029,13.33,0.014,355.9
2019-08-29T03:13:05,42.805,6.029,-0.028,0.0,-0.029,104.0,110.0,100.0,13.4,1505.3,325.7,-0.7,1.9,2470.042,13.33,0.028,270.0
2019-08-29T03:16:06,42.805,6.029,0.024,0.009,-0.024,102.0,111.0,100.0,13.3,1505.3,327.0,-0.7,1.8,2470.067,13.33,0.025,69.4
2019-08-29T03:19:07,42.805,6.029,0.02,0.009,-0.024,102.0,111.0,99.0,13.4,1505.3,326.8,-0.7,1.8,2470.062,13.33,0.021,65.8
2019-08-29T03:22:08,42.805,6.029,-0.001,0.01,-0.045,102.0,111.0,98.0,13.4,1505.3,326.4,-0.7,1.8,2470.116,13.33,0.01,354.3
2019-08-29T03:25:09,42.805,6.029,-0.004,0.013,-0.037,103.0,109.0,100.0,13.4,1505.3,326.2,-0.7,1.9,2470.065,13.33,0.013,342.9
2019-08-29T03:28:10,42.805,6.029,0.012,0.016,-0.052,102.0,111.0,99.0,13.4,1505.3,325.4,-0.7,1.8,2470.081,13.33,0.02,36.9
2019-08-29T03:31:11,42.805,6.029,0.003,-0.012,-0.035,104.0,111.0,98.0,13.4,1505.3,325.7,-0.7,1.8,2470.066,13.32,0.012,166.0
2019-08-29T03:34:12,42.805,6.029,0.033,0.011,-0.032,102.0,110.0,99.0,13.4,1505.3,325.7,-0.7,1.8,2470.096,13.32,0.034,71.6
2019-08-29T03:37:13,42.805,6.029,-0.02,0.018,-0.041,102.0,111.0,100.0,13.3,1505.3,327.3,-0.7,1.8,2470.122,13.33,0.026,312.0
2019-08-29T03:40:14,42.805,6.029,0.034,0.013,-0.026,101.0,109.0,99.0,13.3,1505.3,327.8,-0.7,1.8,2470.157,13.33,0.036,69.1
2019-08-29T03:43:15,42.805,6.029,-0.008,0.021,-0.057,102.0,109.0,98.0,13.3,1505.3,326.9,-0.7,1.8,2470.094,13.32,0.022,339.1
2019-08-29T03:46:16,42.805,6.029,0.016,0.001,-0.005,104.0,110.0,98.0,13.4,1505.3,328.3,-0.7,1.8,2470.097,13.32,0.016,86.4
2019-08-29T03:49:17,42.805,6.029,0.0,0.015,0.011,101.0,109.0,99.0,13.3,1505.3,324.0,-0.8,1.8,2470.089,13.32,0.015,0.0
2019-08-29T03:52:18,42.805,6.029,0.024,0.014,-0.022,102.0,109.0,100.0,13.4,1505.3,325.1,-0.7,1.8,2470.11,13.32,0.027,59.7
2019-08-29T03:55:19,42.805,6.029,0.023,0.011,0.004,103.0,110.0,98.0,13.3,1505.3,327.2,-0.7,1.9,2470.082,13.32,0.025,64.4
2019-08-29T03:58:20,42.805,6.029,0.009,0.019,-0.046,101.0,112.0,98.0,13.4,1505.3,323.9,-0.7,1.8,2470.098,13.32,0.021,25.3
2019-08-29T04:01:21,42.805,6.029,0.048,0.021,0.004,100.0,110.0,98.0,13.4,1505.3,326.8,-0.7,1.8,2470.068,13.32,0.052,66.4
2019-08-29T04:04:22,42.805,6.029,0.021,0.014,-0.033,101.0,110.0,97.0,13.4,1505.3,325.1,-0.7,1.9,2470.134,13.32,0.025,56.3
2019-08-29T04:07:23,42.805,6.029,0.026,-0.007,-0.018,101.0,110.0,99.0,13.3,1505.3,328.0,-0.7,1.9,2470.093,13.32,0.026,105.1
2019-08-29T04:10:24,42.805,6.029,0.028,0.009,-0.016,101.0,110.0,99.0,13.4,1505.3,325.8,-0.8,1.8,2470.106,13.32,0.029,72.2
2019-08-29T04:13:25,42.805,6.029,0.01,0.001,-0.031,101.0,109.0,98.0,13.4,1505.3,328.2,-0.7,1.9,2470.092,13.33,0.01,84.3
2019-08-29T04:16:26,42.805,6.029,-0.007,0.029,-0.023,102.0,108.0,98.0,13.4,1505.3,326.0,-0.7,1.8,2470.136,13.33,0.029,346.4
2019-08-29T04:19:27,42.805,6.029,0.002,-0.005,-0.068,101.0,109.0,98.0,13.3,1505.3,324.5,-0.7,1.8,2470.081,13.32,0.005,158.2
2019-08-29T04:22:28,42.805,6.029,0.043,0.016,-0.023,102.0,108.0,97.0,13.4,1505.3,325.6,-0.7,1.9,2470.089,13.33,0.045,69.6
2019-08-29T04:25:29,42.805,6.029,-0.015,0.007,-0.027,102.0,109.0,99.0,13.4,1505.3,324.6,-0.7,1.9,2470.083,13.33,0.016,295.0
2019-08-29T04:28:30,42.805,6.029,0.001,0.018,-0.026,103.0,110.0,99.0,13.4,1505.3,326.1,-0.7,1.8,2470.074,13.32,0.018,3.2
2019-08-29T04:31:31,42.805,6.029,0.011,0.0,-0.058,102.0,110.0,99.0,13.4,1505.3,327.1,-0.7,1.8,2470.113,13.32,0.011,90.0
2019-08-29T04:34:32,42.805,6.029,0.02,0.003,-0.027,102.0,109.0,97.0,13.4,1505.3,327.9,-0.7,1.8,2470.118,13.32,0.02,81.5
2019-08-29T04:37:33,42.805,6.029,0.019,0.038,-0.025,102.0,110.0,98.0,13.3,1505.3,327.9,-0.7,1.8,2470.155,13.32,0.042,26.6
2019-08-29T04:40:34,42.805,6.029,0.0,0.014,-0.017,100.0,110.0,99.0,13.3,1505.3,327.4,-0.7,1.9,2470.15,13.32,0.014,0.0
2019-08-29T04:43:35,42.805,6.029,0.013,0.012,-0.026,102.0,109.0,99.0,13.4,1505.3,327.9,-0.7,1.8,2470.124,13.32,0.017,47.3
2019-08-29T04:46:36,42.805,6.029,0.012,0.044,0.0,101.0,109.0,98.0,13.3,1505.3,327.9,-0.7,1.8,2470.129,13.32,0.045,15.3
2019-08-29T04:49:37,42.805,6.029,0.019,0.017,-0.004,102.0,110.0,98.0,13.4,1505.3,325.6,-0.7,1.8,2470.101,13.32,0.025,48.2
2019-08-29T04:52:38,42.805,6.029,0.032,0.01,-0.029,100.0,110.0,100.0,13.4,1505.3,324.4,-0.7,1.8,2470.158,13.32,0.033,72.6
2019-08-29T04:55:39,42.805,6.029,0.018,0.005,-0.013,101.0,112.0,99.0,13.4,1505.3,323.5,-0.7,1.8,2470.147,13.32,0.018,74.5
2019-08-29T04:58:40,42.805,6.029,0.025,0.021,-0.025,101.0,110.0,98.0,13.3,1505.3,325.8,-0.7,1.8,2470.13,13.32,0.032,50.0
2019-08-29T05:01:41,42.805,6.029,0.0,0.024,-0.048,102.0,111.0,99.0,13.4,1505.3,327.2,-0.7,1.8,2470.108,13.32,0.024,0.0
2019-08-29T05:04:42,42.805,6.029,0.015,-0.003,-0.043,101.0,110.0,98.0,13.4,1505.3,323.5,-0.7,1.9,2470.199,13.32,0.015,101.3
2019-08-29T05:07:43,42.805,6.029,0.002,0.002,-0.037,101.0,111.0,98.0,13.4,1505.3,325.0,-0.7,1.8,2470.194,13.32,0.002,45.0
2019-08-29T05:10:44,42.805,6.029,0.042,0.011,0.0,101.0,110.0,99.0,13.3,1505.3,327.2,-0.7,1.8,2470.123,13.32,0.043,75.3
2019-08-29T05:13:45,42.805,6.029,0.0,0.015,-0.053,103.0,111.0,97.0,13.4,1505.3,325.9,-0.7,1.8,2470.14,13.32,0.015,0.0
2019-08-29T05:16:46,42.805,6.029,0.03,0.018,-0.043,100.0,110.0,98.0,13.4,1505.3,328.2,-0.7,1.8,2470.179,13.32,0.034,59.0
2019-08-29T05:19:47,42.805,6.029,0.05,0.004,-0.025,101.0,111.0,99.0,13.4,1505.3,327.1,-0.7,1.8,2470.117,13.32,0.05,85.4
2019-08-29T05:22:48,42.805,6.029,-0.008,0.01,-0.038,99.0,111.0,99.0,13.4,1505.3,324.9,-0.7,1.8,2470.178,13.32,0.012,321.3
2019-08-29T05:25:49,42.805,6.029,0.019,0.005,-0.014,102.0,110.0,98.0,13.3,1505.3,324.7,-0.7,1.8,2470.159,13.32,0.019,75.3
2019-08-29T05:28:50,42.805,6.029,0.013,0.006,-0.005,102.0,107.0,99.0,13.4,1505.3,324.4,-0.7,1.8,2470.106,13.32,0.014,65.2
2019-08-29T05:31:51,42.805,6.029,0.012,0.02,-0.022,101.0,110.0,98.0,13.3,1505.3,323.7,-0.7,1.8,2470.205,13.32,0.023,31.0
2019-08-29T05:34:52,42.805,6.029,0.024,0.011,-0.003,102.0,111.0,98.0,13.3,1505.3,326.1,-0.7,1.8,2470.128,13.32,0.026,65.4
2019-08-29T05:37:53,42.805,6.029,0.014,0.024,-0.018,102.0,109.0,98.0,13.4,1505.3,327.7,-0.7,1.8,2470.158,13.32,0.027,30.3
2019-08-29T05:40:54,42.805,6.029,0.023,0.0,-0.022,101.0,111.0,98.0,13.4,1505.3,324.9,-0.7,1.8,2470.147,13.32,0.023,90.0
2019-08-29T05:43:55,42.805,6.029,0.012,0.009,-0.042,101.0,111.0,98.0,13.3,1505.3,327.2,-0.7,1.8,2470.169,13.32,0.015,53.1
2019-08-29T05:46:56,42.805,6.029,0.007,0.018,-0.042,101.0,108.0,99.0,13.4,1505.3,325.0,-0.7,1.8,2470.149,13.32,0.019,21.2
2019-08-29T05:49:57,42.805,6.029,0.008,0.023,-0.028,103.0,107.0,100.0,13.4,1505.3,326.5,-0.7,1.8,2470.151,13.32,0.024,19.2
2019-08-29T05:52:58,42.805,6.029,0.004,0.03,-0.003,101.0,111.0,98.0,13.3,1505.3,326.6,-0.7,1.9,2470.149,13.33,0.03,7.6
2019-08-29T05:55:59,42.805,6.029,0.026,0.006,-0.033,101.0,109.0,99.0,13.4,1505.3,323.3,-0.7,1.8,2470.159,13.33,0.026,77.0
2019-08-29T05:59:00,42.805,6.029,0.02,0.018,-0.036,102.0,109.0,99.0,13.4,1505.3,328.2,-0.7,1.8,2470.151,13.33,0.026,48.0
2019-08-29T06:02:01,42.805,6.029,0.023,0.023,-0.015,102.0,109.0,99.0,13.4,1505.3,325.2,-0.7,1.8,2470.162,13.33,0.032,45.0
2019-08-29T06:05:02,42.805,6.029,0.021,0.041,-0.01,101.0,108.0,98.0,13.4,1505.3,324.8,-0.7,1.8,2470.132,13.33,0.046,27.1
2019-08-29T06:08:03,42.805,6.029,0.013,0.03,-0.01,101.0,109.0,99.0,13.4,1505.3,325.0,-0.7,1.8,2470.196,13.32,0.032,23.4
2019-08-29T06:11:04,42.805,6.029,0.036,0.024,-0.028,102.0,109.0,99.0,13.3,1505.3,325.4,-0.7,1.8,2470.124,13.32,0.043,56.3
2019-08-29T06:14:05,42.805,6.029,0.008,0.011,-0.055,101.0,109.0,99.0,13.4,1505.3,326.3,-0.7,1.8,2470.161,13.32,0.013,36.0
2019-08-29T06:17:06,42.805,6.029,0.023,0.005,-0.027,101.0,108.0,98.0,13.4,1505.3,325.2,-0.7,1.8,2470.149,13.32,0.023,77.7
2019-08-29T06:20:07,42.805,6.029,0.012,0.02,0.013,100.0,108.0,100.0,13.4,1505.3,326.3,-0.7,1.8,2470.192,13.32,0.023,31.0
2019-08-29T06:23:08,42.805,6.029,0.013,0.006,-0.013,102.0,107.0,98.0,13.3,1505.3,326.1,-0.7,1.8,2470.142,13.33,0.014,65.2
2019-08-29T06:26:09,42.805,6.029,0.006,-0.006,-0.035,101.0,110.0,98.0,13.3,1505.3,324.0,-0.7,1.9,2470.169,13.32,0.008,135.0
2019-08-29T06:29:10,42.805,6.029,0.002,-0.003,-0.021,101.0,108.0,98.0,13.4,1505.3,325.8,-0.7,1.8,2470.124,13.33,0.003,146.3
2019-08-29T06:32:11,42.805,6.029,0.003,-0.002,-0.059,102.0,108.0,99.0,13.4,1505.3,327.8,-0.7,1.9,2470.149,13.33,0.003,123.7
2019-08-29T06:35:12,42.805,6.029,-0.024,0.01,-0.037,101.0,109.0,98.0,13.4,1505.3,328.1,-0.7,1.8,2470.103,13.33,0.026,292.6
2019-08-29T06:38:13,42.805,6.029,0.014,0.012,0.007,102.0,108.0,99.0,13.4,1505.3,326.5,-0.7,1.8,2470.144,13.33,0.018,49.4
2019-08-29T06:41:14,42.805,6.029,0.028,0.016,-0.013,102.0,109.0,98.0,13.4,1505.3,328.4,-0.7,1.8,2470.139,13.33,0.032,60.3
2019-08-29T06:44:15,42.805,6.029,0.01,0.015,0.002,101.0,108.0,98.0,13.4,1505.3,327.9,-0.7,1.8,2470.162,13.33,0.018,33.7
2019-08-29T06:47:16,42.805,6.029,-0.021,0.008,-0.047,102.0,107.0,98.0,13.4,1505.3,323.2,-0.7,1.9,2470.125,13.33,0.022,290.9
2019-08-29T06:50:17,42.805,6.029,0.01,0.009,-0.001,103.0,108.0,97.0,13.3,1505.3,327.1,-0.7,1.8,2470.128,13.33,0.013,48.0
2019-08-29T06:53:18,42.805,6.029,0.024,-0.003,-0.019,101.0,108.0,99.0,13.4,1505.3,326.4,-0.7,1.8,2470.129,13.33,0.024,97.1
2019-08-29T06:56:19,42.805,6.029,0.025,0.022,-0.038,101.0,109.0,98.0,13.4,1505.3,326.6,-0.7,1.8,2470.137,13.33,0.033,48.7
2019-08-29T06:59:20,42.805,6.029,-0.01,0.0,-0.066,103.0,107.0,98.0,13.4,1505.3,327.2,-0.7,1.9,2470.109,13.33,0.01,270.0
2019-08-29T07:02:21,42.805,6.029,0.01,0.024,-0.038,101.0,108.0,99.0,13.3,1505.3,327.0,-0.7,1.9,2470.159,13.33,0.026,22.6
2019-08-29T07:05:22,42.805,6.029,0.007,0.009,-0.016,101.0,108.0,98.0,13.3,1505.3,326.7,-0.7,1.9,2470.154,13.33,0.011,37.9
2019-08-29T07:08:23,42.805,6.029,0.015,0.032,-0.031,101.0,108.0,98.0,13.4,1505.3,327.1,-0.7,1.9,2470.16,13.33,0.035,25.1
2019-08-29T07:11:24,42.805,6.029,-0.012,0.006,-0.064,101.0,108.0,98.0,13.4,1505.3,325.2,-0.7,1.9,2470.121,13.33,0.013,296.6
2019-08-29T07:14:25,42.805,6.029,0.015,0.02,-0.011,102.0,108.0,99.0,13.4,1505.3,327.2,-0.7,1.8,2470.151,13.33,0.025,36.9
2019-08-29T07:17:26,42.805,6.029,0.02,0.008,-0.089,101.0,107.0,99.0,13.4,1505.3,325.9,-0.7,1.8,2470.15,13.33,0.021,68.2
2019-08-29T07:20:27,42.805,6.029,-0.009,0.003,-0.038,102.0,109.0,99.0,13.3,1505.3,327.1,-0.8,1.8,2470.109,13.33,0.009,288.4
2019-08-29T07:23:28,42.805,6.029,0.012,0.017,-0.037,100.0,114.0,99.0,13.3,1505.3,324.7,-0.7,1.8,2470.126,13.33,0.02,35.2
2019-08-29T07:26:29,42.805,6.029,0.024,0.014,-0.024,102.0,108.0,99.0,13.3,1505.3,324.7,-0.7,1.8,2470.133,13.33,0.027,59.7
2019-08-29T07:29:30,42.805,6.029,0.004,0.002,-0.031,101.0,108.0,98.0,13.3,1505.3,327.6,-0.7,1.8,2470.107,13.33,0.004,63.4
2019-08-29T07:32:31,42.805,6.029,0.023,-0.007,-0.04,103.0,110.0,98.0,13.4,1505.3,324.3,-0.7,1.8,2470.129,13.33,0.024,106.9
2019-08-29T07:35:32,42.805,6.029,0.015,0.001,-0.027,102.0,106.0,98.0,13.4,1505.3,327.0,-0.7,1.8,2470.116,13.33,0.015,86.2
2019-08-29T07:38:33,42.805,6.029,0.015,0.01,-0.03,101.0,107.0,99.0,13.4,1505.3,324.5,-0.7,1.9,2470.109,13.33,0.018,56.3
2019-08-29T07:41:34,42.805,6.029,0.019,0.02,-0.046,102.0,107.0,98.0,13.3,1505.3,328.1,-0.7,1.8,2470.118,13.33,0.027,43.5
2019-08-29T07:44:35,42.805,6.029,0.005,0.008,-0.026,101.0,109.0,99.0,13.4,1505.3,323.9,-0.7,1.9,2470.151,13.33,0.009,32.0
2019-08-29T07:47:36,42.805,6.029,0.029,0.011,-0.025,100.0,109.0,98.0,13.4,1505.3,323.7,-0.7,1.8,2470.144,13.33,0.031,69.2
2019-08-29T07:50:37,42.805,6.029,0.008,0.02,-0.042,100.0,109.0,99.0,13.4,1505.3,326.4,-0.7,1.8,2470.13,13.33,0.021,21.8
2019-08-29T07:53:38,42.805,6.029,0.022,0.037,0.0,101.0,109.0,98.0,13.4,1505.3,324.7,-0.7,1.8,2470.141,13.33,0.043,30.7
2019-08-29T07:56:39,42.805,6.029,0.0,0.023,-0.049,101.0,109.0,98.0,13.4,1505.3,326.9,-0.7,1.8,2470.088,13.33,0.023,0.0
2019-08-29T07:59:40,42.805,6.029,0.026,0.0,-0.07,101.0,109.0,98.0,13.4,1505.3,327.5,-0.8,1.8,2470.111,13.32,0.026,90.0
2019-08-29T08:02:41,42.805,6.029,0.025,0.008,-0.015,101.0,108.0,98.0,13.4,1505.3,323.6,-0.7,1.8,2470.088,13.32,0.026,72.3
2019-08-29T08:05:42,42.805,6.029,0.016,-0.002,-0.04,102.0,107.0,99.0,13.3,1505.3,324.2,-0.7,1.9,2470.148,13.32,0.016,97.1
2019-08-29T08:08:43,42.805,6.029,0.015,0.017,-0.023,101.0,109.0,98.0,13.4,1505.3,326.9,-0.7,1.8,2470.12,13.33,0.022,41.4
2019-08-29T08:11:44,42.805,6.029,-0.016,0.02,-0.049,100.0,108.0,99.0,13.4,1505.3,327.4,-0.7,1.8,2470.133,13.33,0.025,321.3
2019-08-29T08:14:45,42.805,6.029,0.0,0.005,-0.066,101.0,109.0,98.0,13.3,1505.3,326.0,-0.7,1.8,2470.088,13.33,0.005,0.0
2019-08-29T08:17:46,42.805,6.029,0.0,0.018,-0.035,101.0,106.0,99.0,13.4,1505.3,326.4,-0.7,1.8,2470.105,13.33,0.018,0.0
2019-08-29T08:20:47,42.805,6.029,0.018,0.008,-0.048,101.0,107.0,98.0,13.4,1505.3,325.7,-0.7,1.8,2470.098,13.33,0.019,66.0
2019-08-29T08:23:48,42.805,6.029,0.039,0.016,-0.012,102.0,107.0,97.0,13.4,1505.3,324.3,-0.7,1.8,2470.081,13.33,0.042,67.7
2019-08-29T08:26:49,42.805,6.029,0.024,0.005,-0.015,101.0,109.0,99.0,13.3,1505.3,323.3,-0.7,1.8,2470.064,13.33,0.024,78.2
2019-08-29T08:29:50,42.805,6.029,0.037,0.002,-0.045,100.0,106.0,98.0,13.3,1505.3,326.1,-0.7,1.9,2470.081,13.33,0.037,86.9
2019-08-29T08:32:51,42.805,6.029,0.009,0.0,-0.049,100.0,109.0,99.0,13.3,1505.3,325.5,-0.7,1.8,2470.114,13.33,0.009,90.0
2019-08-29T08:35:52,42.805,6.029,0.035,0.023,-0.013,100.0,108.0,99.0,13.3,1505.3,327.9,-0.7,1.8,2470.108,13.33,0.041,56.7
2019-08-29T08:38:53,42.805,6.029,0.039,0.016,-0.032,101.0,108.0,99.0,13.4,1505.3,326.7,-0.7,1.8,2470.081,13.33,0.042,67.7
2019-08-29T08:41:54,42.805,6.029,0.0,0.013,-0.057,102.0,107.0,99.0,13.4,1505.3,323.5,-0.7,1.8,2470.08,13.33,0.013,0.0
2019-08-29T08:44:55,42.805,6.029,0.008,0.002,-0.015,102.0,106.0,97.0,13.4,1505.3,327.3,-0.7,1.8,2470.08,13.33,0.008,76.0
2019-08-29T08:47:56,42.805,6.029,-0.01,0.001,-0.049,100.0,107.0,98.0,13.4,1505.3,325.5,-0.7,1.9,2470.085,13.33,0.01,275.7
2019-08-29T08:50:57,42.805,6.029,0.008,0.01,-0.015,101.0,106.0,99.0,13.4,1505.3,325.2,-0.7,1.9,2470.024,13.33,0.012,38.7
2019-08-29T08:53:58,42.805,6.029,0.032,0.027,-0.018,100.0,107.0,98.0,13.4,1505.3,327.0,-0.7,1.8,2470.06,13.33,0.041,49.8
2019-08-29T08:56:59,42.805,6.029,-0.002,0.023,-0.022,101.0,108.0,98.0,13.4,1505.3,328.1,-0.7,1.8,2470.074,13.33,0.023,355.0
2019-08-29T09:00:00,42.805,6.029,0.041,0.026,-0.025,101.0,111.0,98.0,13.3,1505.3,324.1,-0.7,1.8,2470.063,13.33,0.048,57.6
2019-08-29T09:03:01,42.805,6.029,0.006,0.01,-0.043,101.0,108.0,99.0,13.4,1505.3,326.3,-0.7,1.9,2470.064,13.33,0.011,31.0
2019-08-29T09:06:02,42.805,6.029,0.013,-0.002,-0.031,100.0,107.0,98.0,13.4,1505.3,326.3,-0.7,1.8,2470.056,13.33,0.013,98.7
2019-08-29T09:09:03,42.805,6.029,0.018,0.019,-0.001,99.0,108.0,98.0,13.3,1505.3,326.0,-0.7,1.9,2470.048,13.33,0.026,43.5
2019-08-29T09:12:04,42.805,6.029,-0.021,0.0,-0.076,100.0,107.0,97.0,13.4,1505.3,324.5,-0.7,1.8,2470.089,13.33,0.021,270.0
2019-08-29T09:15:05,42.805,6.029,0.005,-0.007,-0.022,100.0,109.0,97.0,13.4,1505.3,327.6,-0.7,1.8,2470.054,13.33,0.008,144.5
2019-08-29T09:18:06,42.805,6.029,-0.011,0.01,-0.062,100.0,107.0,97.0,13.4,1505.3,324.6,-0.7,1.8,2470.009,13.33,0.014,312.3
2019-08-29T09:21:07,42.805,6.029,-0.017,0.0,-0.072,98.0,108.0,98.0,13.3,1505.3,323.5,-0.7,1.8,2470.043,13.33,0.017,270.0
2019-08-29T09:24:08,42.805,6.029,-0.004,0.015,-0.043,102.0,108.0,99.0,13.4,1505.3,324.3,-0.7,1.8,2470.026,13.33,0.015,345.1
2019-08-29T09:27:09,42.805,6.029,0.01,0.023,-0.055,100.0,107.0,98.0,13.4,1505.3,323.7,-0.7,1.9,2470.05,13.33,0.025,23.5
2019-08-29T09:30:10,42.805,6.029,0.043,0.03,-0.021,102.0,107.0,99.0,13.3,1505.3,324.3,-0.7,1.9,2469.993,13.33,0.052,55.1
2019-08-29T09:33:11,42.805,6.029,-0.015,0.001,-0.086,100.0,108.0,99.0,13.4,1505.3,323.3,-0.7,1.8,2470.074,13.33,0.015,273.8
2019-08-29T09:36:12,42.805,6.029,0.03,0.004,0.001,102.0,108.0,99.0,13.4,1505.3,323.9,-0.7,1.8,2470.043,13.33,0.03,82.4
2019-08-29T09:39:13,42.805,6.029,0.013,0.009,-0.006,103.0,107.0,97.0,13.4,1505.3,327.7,-0.7,1.8,2470.027,13.33,0.015,55.3
2019-08-29T09:42:14,42.805,6.029,0.007,0.023,-0.026,100.0,108.0,99.0,13.4,1505.3,325.1,-0.7,1.8,2470.045,13.33,0.024,16.9
2019-08-29T09:45:15,42.805,6.029,0.022,-0.003,-0.011,103.0,107.0,98.0,13.4,1505.3,326.3,-0.7,1.8,2469.998,13.33,0.022,97.8